TimePST,TemperatureF,Dew PointF,Humidity,Sea Level PressureIn,VisibilityMPH,Wind Direction,Wind SpeedMPH,Gust SpeedMPH,PrecipitationIn,Events,Conditions,WindDirDegrees,DateUTC
12:52 AM,30.9,1.0,28,30.26,10.0,Variable,5.8,-,N/A,,Clear,0,2013-01-04 08:52:00
1:52 AM,28.0,3.0,34,30.27,10.0,Calm,Calm,-,N/A,,Clear,0,2013-01-04 09:52:00
2:52 AM,33.1,1.9,27,30.26,10.0,NE,8.1,-,N/A,,Clear,50,2013-01-04 10:52:00
3:52 AM,28.9,1.9,32,30.26,10.0,East,5.8,-,N/A,,Clear,90,2013-01-04 11:52:00
4:52 AM,33.1,1.9,27,30.26,10.0,NE,11.5,-,N/A,,Clear,50,2013-01-04 12:52:00
5:52 AM,30.0,1.9,30,30.28,10.0,Calm,Calm,-,N/A,,Clear,0,2013-01-04 13:52:00
6:52 AM,25.0,1.9,37,30.31,10.0,East,4.6,-,N/A,,Clear,100,2013-01-04 14:52:00
7:52 AM,28.9,3.9,35,30.32,10.0,NNW,3.5,-,N/A,,Clear,340,2013-01-04 15:52:00
8:52 AM,36.0,3.0,25,30.33,10.0,Calm,Calm,-,N/A,,Clear,0,2013-01-04 16:52:00
9:52 AM,42.1,3.0,20,30.32,10.0,Calm,Calm,-,N/A,,Clear,0,2013-01-04 17:52:00
10:52 AM,45.0,1.9,17,30.30,10.0,Calm,Calm,-,N/A,,Clear,0,2013-01-04 18:52:00
11:52 AM,46.9,1.0,15,30.25,10.0,Calm,Calm,-,N/A,,Clear,0,2013-01-04 19:52:00
12:52 PM,50.0,-0.0,13,30.22,10.0,Calm,Calm,-,N/A,,Clear,0,2013-01-04 20:52:00
1:52 PM,51.1,-2.0,11,30.21,10.0,Calm,Calm,-,N/A,,Clear,0,2013-01-04 21:52:00
2:52 PM,51.1,-4.0,10,30.20,10.0,Calm,Calm,-,N/A,,Clear,0,2013-01-04 22:52:00
3:52 PM,50.0,-2.9,11,30.20,10.0,Variable,3.5,-,N/A,,Clear,0,2013-01-04 23:52:00
4:52 PM,45.0,1.9,17,30.21,10.0,South,4.6,-,N/A,,Clear,190,2013-01-05 00:52:00
5:52 PM,37.9,1.9,22,30.25,10.0,East,5.8,-,N/A,,Clear,100,2013-01-05 01:52:00
6:52 PM,33.1,3.9,29,30.27,10.0,East,3.5,-,N/A,,Clear,100,2013-01-05 02:52:00
7:52 PM,32.0,5.0,32,30.28,10.0,NNE,5.8,-,N/A,,Clear,20,2013-01-05 03:52:00
8:52 PM,30.0,3.9,33,30.28,10.0,Calm,Calm,-,N/A,,Clear,0,2013-01-05 04:52:00
9:52 PM,28.9,5.0,36,30.27,10.0,Calm,Calm,-,N/A,,Clear,0,2013-01-05 05:52:00
10:52 PM,28.0,5.0,38,30.27,10.0,Calm,Calm,-,N/A,,Clear,0,2013-01-05 06:52:00
11:52 PM,28.9,6.1,38,30.27,10.0,Calm,Calm,-,N/A,,Clear,0,2013-01-05 07:52:00